Location: Bay Harbour
(38.2612°N, 75.2555°W)
Time: 01:49:01
(UTC+00:00)

Aureole 3 - Pass Details

Date: 29 October 2020
Orbit: 382 x 1231 km, 82.5° (Epoch: 02 December)

Event Time Altitude Azimuth Distance (km) Brightness Sun altitude
Rises 22:30:40 0° 176° (S) 2,451 6.8 -5.8°
Reaches altitude 10° 22:32:51 10° 170° (S) 1,507 5.6 -6.2°
Maximum altitude 22:35:55 47° 95° (E) 533 2.9 -6.8°
Drops below altitude 10° 22:38:48 10° 20° (NNE) 1,412 5.1 -7.4°
Sets 22:40:47 0° 14° (NNE) 2,273 6.2 -7.8°
